| time (UTC) | temp F | wind direction | speed knots | gust knots | rain 1hr in | rain 24hr in | rain mn in | humidity % | barometer mb |
| 20260505090115 | 44 | 226 | 4.3 | 9.6 | 0.00 | 0.65 | 0.00 | 81 | 1007.5 |
| 20260505084510 | 45 | 282 | 5.2 | 13.0 | 0.00 | 0.66 | 0.00 | 80 | 1007.0 |
| 20260505083008 | 45 | 214 | 5.2 | 13.9 | 0.00 | 0.66 | 0.00 | 80 | 1006.5 |
| 20260505081510 | 45 | 240 | 5.2 | 13.0 | 0.00 | 0.66 | 0.00 | 81 | 1006.4 |
| 20260505080001 | 45 | 271 | 3.5 | 15.6 | 0.00 | 0.67 | 0.00 | 80 | 1006.3 |
| 20260505074602 | 45 | 182 | 4.3 | 17.4 | 0.00 | 0.67 | 0.00 | 80 | 1006.1 |
| 20260505073111 | 45 | 203 | 1.7 | 10.4 | 0.00 | 0.67 | 0.00 | 80 | 1006.0 |
| 20260505071600 | 45 | 284 | 2.6 | 13.0 | 0.00 | 0.67 | 0.00 | 80 | 1005.8 |
| 20260505070054 | 45 | 234 | 2.6 | 7.8 | 0.00 | 0.67 | 0.00 | 78 | 1005.6 |
| 20260505064550 | 45 | 254 | 5.2 | 13.9 | 0.00 | 0.69 | 0.00 | 78 | 1005.4 |
| 20260505063048 | 46 | 260 | 4.3 | 12.2 | 0.00 | 0.69 | 0.00 | 77 | 1004.9 |
| 20260505061552 | 46 | 216 | 4.3 | 13.0 | 0.00 | 0.69 | 0.00 | 77 | 1004.8 |
| 20260505060044 | 47 | 253 | 5.2 | 16.5 | 0.00 | 0.69 | 0.00 | 77 | 1004.6 |
| 20260505054559 | 47 | 217 | 1.7 | 8.7 | 0.00 | 0.71 | 0.00 | 77 | 1004.4 |
| 20260505053039 | 47 | 281 | 5.2 | 12.2 | 0.00 | 0.71 | 0.00 | 77 | 1004.3 |
| 20260505051535 | 47 | 246 | 7.8 | 15.6 | 0.00 | 0.71 | 0.00 | 77 | 1004.1 |
| 20260505041522 | 48 | 208 | 4.3 | 10.4 | 0.00 | 0.72 | 0.00 | 77 | 1003.7 |
| 20260505040020 | 48 | 240 | 6.1 | 18.2 | 0.00 | 0.72 | 0.00 | 77 | 1003.3 |
| 20260505034515 | 48 | 227 | 5.2 | 16.5 | 0.00 | 0.72 | 0.00 | 76 | 1003.2 |
| 20260505033013 | 49 | 250 | 5.2 | 13.0 | 0.00 | 0.72 | 0.00 | 75 | 1003.1 |
| 20260505031530 | 49 | 225 | 3.5 | 16.5 | 0.00 | 0.72 | 0.00 | 74 | 1002.7 |
| 20260505030009 | 49 | 202 | 4.3 | 15.6 | 0.00 | 0.79 | 0.72 | 74 | 1002.5 |
| 20260505024513 | 49 | 238 | 3.5 | 13.9 | 0.00 | 0.79 | 0.72 | 72 | 1002.3 |
| 20260505023009 | 49 | 229 | 6.1 | 15.6 | 0.00 | 0.79 | 0.72 | 70 | 1002.0 |
| 20260505021504 | 49 | 233 | 2.6 | 12.2 | 0.00 | 0.79 | 0.72 | 70 | 1002.1 |
| 20260505020002 | 49 | 226 | 4.3 | 15.6 | 0.00 | 1.09 | 0.72 | 69 | 1001.6 |
| 20260505014609 | 49 | 273 | 2.6 | 10.4 | 0.00 | 1.09 | 0.72 | 67 | 1001.4 |
| 20260505013109 | 49 | 202 | 5.2 | 11.3 | 0.00 | 1.09 | 0.72 | 67 | 1001.3 |
| 20260505011556 | 49 | 200 | 5.2 | 10.4 | 0.00 | 1.09 | 0.72 | 65 | 1001.0 |
| 20260505010055 | 49 | 217 | 4.3 | 14.8 | 0.00 | 1.09 | 0.72 | 66 | 1000.8 |
| 20260505004557 | 48 | 227 | 6.1 | 13.9 | 0.00 | 1.38 | 0.72 | 68 | 1000.7 |
| 20260505003053 | 48 | 220 | 4.3 | 13.9 | 0.00 | 1.38 | 0.72 | 64 | 1000.9 |
| 20260505001556 | 48 | 279 | 3.5 | 11.3 | 0.00 | 1.38 | 0.72 | 63 | 1000.7 |
| 20260505000106 | 47 | 209 | 2.6 | 7.8 | 0.00 | 1.38 | 0.72 | 61 | 1000.4 |
| 20260504234546 | 48 | 207 | 3.5 | 12.2 | 0.00 | 1.56 | 0.72 | 65 | 1000.0 |
| 20260504233046 | 48 | 286 | 5.2 | 13.0 | 0.00 | 1.56 | 0.72 | 64 | 999.8 |
| 20260504231545 | 49 | 233 | 7.0 | 16.5 | 0.00 | 1.56 | 0.72 | 62 | 999.4 |
| 20260504230100 | 49 | 211 | 5.2 | 15.6 | 0.00 | 1.56 | 0.72 | 62 | 999.4 |
| 20260504224540 | 50 | 216 | 7.8 | 19.1 | 0.00 | 1.88 | 0.72 | 62 | 999.1 |
| 20260504223040 | 50 | 259 | 9.6 | 23.5 | 0.00 | 1.88 | 0.72 | 61 | 998.8 |
| 20260504221550 | 50 | 238 | 7.8 | 25.2 | 0.00 | 1.88 | 0.72 | 62 | 998.8 |
| 20260504220037 | 50 | 279 | 7.0 | 23.5 | 0.00 | 1.88 | 0.72 | 62 | 998.6 |
| 20260504214537 | 51 | 267 | 10.4 | 24.3 | 0.00 | 1.95 | 0.72 | 62 | 998.5 |
| 20260504213042 | 51 | 213 | 10.4 | 27.8 | 0.00 | 1.95 | 0.72 | 61 | 998.4 |
| 20260504211533 | 51 | 195 | 9.6 | 23.5 | 0.00 | 1.95 | 0.72 | 62 | 998.4 |
| 20260504210033 | 51 | 287 | 12.2 | 23.5 | 0.00 | 1.95 | 0.72 | 63 | 998.1 |
| 20260504204537 | 50 | 225 | 7.0 | 22.6 | 0.00 | 2.06 | 0.72 | 64 | 998.2 |
| 20260504203031 | 50 | 244 | 12.2 | 35.6 | 0.00 | 2.06 | 0.72 | 65 | 997.9 |
| 20260504201529 | 51 | 265 | 11.3 | 22.6 | 0.00 | 2.06 | 0.72 | 64 | 997.4 |
| 20260504200025 | 50 | 202 | 8.7 | 30.4 | 0.00 | 2.06 | 0.72 | 69 | 997.2 |
| 20260504194524 | 50 | 263 | 10.4 | 32.2 | 0.00 | 2.08 | 0.72 | 71 | 996.8 |
| 20260504193019 | 48 | 205 | 13.0 | 24.3 | 0.00 | 2.08 | 0.72 | 73 | 996.5 |
| 20260504191516 | 48 | 213 | 13.0 | 30.4 | 0.00 | 2.08 | 0.72 | 74 | 996.0 |
| 20260504190015 | 47 | 292 | 7.8 | 24.3 | 0.00 | 2.08 | 0.72 | 76 | 995.7 |
| 20260504184514 | 48 | 274 | 7.8 | 20.9 | 0.00 | 2.08 | 0.72 | 77 | 995.5 |
| 20260504183008 | 47 | 236 | 7.8 | 26.9 | 0.00 | 2.08 | 0.72 | 80 | 995.1 |
| 20260504181506 | 45 | 252 | 6.1 | 30.4 | 0.00 | 2.08 | 0.72 | 82 | 995.1 |
| 20260504180003 | 45 | 229 | 9.6 | 30.4 | 0.00 | 2.08 | 0.72 | 84 | 994.9 |
| 20260504174600 | 44 | 242 | 9.6 | 26.1 | 0.00 | 2.08 | 0.72 | 85 | 994.6 |
| 20260504173056 | 44 | 224 | 11.3 | 25.2 | 0.01 | 2.08 | 0.72 | 87 | 993.6 |
| 20260504171552 | 43 | 113 | 11.3 | 24.3 | 0.03 | 2.08 | 0.72 | 89 | 992.8 |